DELTA 1 DEB, 7168

Orbit data source: Space-Track

DELTA 1 DEB, 7168 is space debris in SSO originally from a launch on Tue, 06 Nov 1973 UTC launched from the Air Force Western Test Range (AFWTR). Debris objects in space refer to the collection of defunct objects orbiting the Earth. Examples of debris include non-operational satellites, rocket bodies, and fragments generated from explosions, collisions, or faulty payload assembly.

Loading next visibility...
Identifier
7168, 1973-086EG
Orbit
SSO
Country
Flag of USUS
Related business
Manufacturer
Unknown
Mission
Spacecraft
Bus & Motor
Unknown
Mass
Unknown
Launch date (UTC)
1973-11-06 (52 years ago)
Launch vehicle
Unknown
Launch site
Air Force Western Test Range (AFWTR)
Object type
Payload
Rocket body
Debris
Shape & HBR
Unknown shape, 0.1 m
Radar Cross Section
Small (<0.1 m²)

Expand to show TLE details & history
Last TLE update: 17 hours ago

TLE from 17 hours ago
0 DELTA 1 DEB
1  7168U 73086EG  26122.30385220  .00000338  00000-0  38954-2 0  9997
2  7168 102.3043 257.0086 0183360 209.5004 183.5306 12.11314076532929
Epoch: 2026-05-02T07:17Z
TLE epoch observation values (Epoch: 2026-05-02T07:17:32.830Z)
Latitude
32.11141°
Longitude
-80.43202°
Altitude
1,780.979 km
Speed
6.929 km/s
True Right ascension
16h 36m 42s
True Declination
31° 58' 34"
Sunlit
Object was in daylight at epoch
Visualization orbit readout
Latitude
Unknown
Longitude
Unknown
Altitude
Unknown
Speed
Unknown
Apparent Right ascension
Unknown
Apparent Declination
Unknown
Sunlit
N/A
Visualization observer readout
Local Sidereal Time
08:20:06
Azimuth
Unknown
Elevation
Unknown
Doppler factor
Unknown
Orbital elements
Apogee altitude
1,775.033 km
Perigee altitude
1,481.424 km
Semi-major axis
8,006.366 km
Eccentricity
0.01834
Inclination
102.3043°
RAAN
257.0086°
Arg. of periapsis
209.5004°
True anomaly
183.4041°
Mean anomaly
183.5306°
Eccentric anomaly
183.46707°
Mean motion
3.02963 °/min
Orbital period
118.83 mins
BSTAR
0.0038954
Loading maneuver chart data...
Computing Atmospheric mass density...
Loading historical data...
Loading historical data...
Loading historical data...
Loading historical data...
Loading historical data...
Loading historical data...
Loading historical data...

Documentation

Showing up to 5 results
|